Location: ????????
(56.1167°N, 38.6333°E)
Time: 21:04:55
(UTC+00:00)

Resurs 01 Rocket - Pass Details

Date: 18 November 2025
Orbit: 626 x 636 km, 97.7° (Epoch: 06 December)

Event Time Altitude Azimuth Distance (km) Brightness Sun altitude
Exits shadow 15:52:42 51° 38° (NE) 809 1.8 -21.8°
Drops below altitude 10° 15:56:28 10° 352° (N) 2,038 4.3 -22.3°
Sets 15:58:43 0° 348° (NNW) 2,950 5.2 -22.6°
